Weather History for Dodge Center, MN

Change the Weather History Date:

Monday, October 7, 2013

  Actual Average (KRST) Record (KRST)
Temperature  
Mean Temperature 52 °F 52 °F  
Max Temperature 64 °F 63 °F 84 °F (2011)
Min Temperature 41 °F 41 °F 22 °F (1976)
Degree Days  
Heating Degree Days 12 14  
Month to date heating degree days 87  
Since 1 July heating degree days 302  
Cooling Degree Days 0 0  
Month to date cooling degree days 4  
Year to date cooling degree days 583  
Growing Degree Days 2 (Base 50)    
Moisture  
Dew Point 40 °F    
Average Humidity 69    
Maximum Humidity 93    
Minimum Humidity 37    
Precipitation  
Precipitation 0.00 in 0.08 in 1.62 in (2008)
Month to date precipitation 0.65  
Year to date precipitation 28.29  
Snow  
Snow 0.00 in 0.00 in T in (2000)
Month to date snowfall 0.0  
Since 1 July snowfall 0.0  
Snow Depth -    
Sea Level Pressure  
Sea Level Pressure 29.94 in    
Wind  
Wind Speed 7 mph (WNW)    
Max Wind Speed 10 mph    
Max Gust Speed 10 mph    
Visibility 10 miles    
Events      
T = Trace of Precipitation, MM = Missing Value Source: NWS Daily Summary

Daily Weather History Graph

Daily Weather History Graph

Search for Another Location

Airport:

Trip Planner

Search our weather history database for the weather conditions in past years. The results will help you decide how hot, cold, wet, or windy it might be!

Date:

Astronomy

Oct. 07, 2013 Rise Set
Actual Time 7:16 AM CDT 6:40 PM CDT
Civil Twilight 6:47 AM CDT 7:09 PM CDT
Nautical Twilight 6:14 AM CDT 7:43 PM CDT
Astronomical Twilight 5:40 AM CDT 8:16 PM CDT
Moon 10:13 AM CDT (10/7) 8:19 PM CDT (10/7)
Length of Visible Light 12h 22m
Length of Day
11h 24m
Waxing Crescent, 9% of the Moon is Illuminated
Oct 7
Waxing Crescent
Oct 11
First Quarter
Oct 18
Full
Oct 26
Last Quarter
Nov 3
New

Hourly Weather History & Observations

Time (CDT) Temp. Windchill Dew Point Humidity Pressure Visibility Wind Dir Wind Speed Gust Speed Precip Events Conditions
12:13 AM 46.4 °F 41.5 °F 44.6 °F 93% 29.85 in 10.0 mi NW 10.4 mph - N/A   Mostly Cloudy
12:34 AM 46.4 °F 42.4 °F 44.6 °F 93% 29.85 in 10.0 mi WNW 8.1 mph - N/A   Clear
12:54 AM 46.4 °F 42.4 °F 42.8 °F 87% 29.85 in 10.0 mi WNW 8.1 mph - N/A   Clear
1:14 AM 44.6 °F 39.7 °F 42.8 °F 93% 29.85 in 10.0 mi WNW 9.2 mph - N/A   Clear
1:34 AM 44.6 °F 39.7 °F 42.8 °F 93% 29.86 in 10.0 mi WNW 9.2 mph - N/A   Scattered Clouds
1:53 AM 44.6 °F 39.7 °F 42.8 °F 93% 29.86 in 10.0 mi WNW 9.2 mph - N/A   Scattered Clouds
2:14 AM 44.6 °F 40.2 °F 41.0 °F 87% 29.86 in 10.0 mi WNW 8.1 mph - N/A   Clear
2:34 AM 44.6 °F 40.2 °F 41.0 °F 87% 29.86 in 10.0 mi WNW 8.1 mph - N/A   Scattered Clouds
2:53 AM 44.6 °F 39.7 °F 41.0 °F 87% 29.86 in 10.0 mi West 9.2 mph - N/A   Scattered Clouds
3:14 AM 44.6 °F 40.2 °F 39.2 °F 81% 29.86 in 10.0 mi West 8.1 mph - N/A   Scattered Clouds
3:34 AM 42.8 °F 38.0 °F 39.2 °F 87% 29.85 in 10.0 mi West 8.1 mph - N/A   Clear
3:53 AM 44.6 °F 40.2 °F 39.2 °F 81% 29.85 in 10.0 mi West 8.1 mph - N/A   Clear
4:14 AM 42.8 °F 37.5 °F 39.2 °F 87% 29.86 in 10.0 mi West 9.2 mph - N/A   Mostly Cloudy
4:33 AM 44.6 °F 39.7 °F 39.2 °F 81% 29.86 in 10.0 mi West 9.2 mph - N/A   Overcast
4:53 AM 42.8 °F 38.0 °F 39.2 °F 87% 29.86 in 10.0 mi WSW 8.1 mph - N/A   Scattered Clouds
5:14 AM 42.8 °F 38.0 °F 39.2 °F 87% 29.86 in 10.0 mi West 8.1 mph - N/A   Clear
5:33 AM 42.8 °F 38.0 °F 39.2 °F 87% 29.86 in 10.0 mi WSW 8.1 mph - N/A   Scattered Clouds
5:54 AM 41.0 °F 35.8 °F 37.4 °F 87% 29.86 in 10.0 mi WSW 8.1 mph - N/A   Scattered Clouds
6:14 AM 42.8 °F 38.6 °F 37.4 °F 81% 29.87 in 10.0 mi West 6.9 mph - N/A   Clear
6:33 AM 42.8 °F 38.6 °F 37.4 °F 81% 29.87 in 10.0 mi West 6.9 mph - N/A   Clear
6:54 AM 42.8 °F 38.6 °F 39.2 °F 87% 29.87 in 10.0 mi West 6.9 mph - N/A   Clear
7:14 AM 42.8 °F 37.0 °F 39.2 °F 87% 29.88 in 10.0 mi West 10.4 mph - N/A   Scattered Clouds
7:33 AM 42.8 °F 38.0 °F 39.2 °F 87% 29.88 in 10.0 mi West 8.1 mph - N/A   Clear
7:54 AM 44.6 °F 39.7 °F 39.2 °F 81% 29.89 in 10.0 mi WNW 9.2 mph - N/A   Clear
8:14 AM 44.6 °F 40.2 °F 39.2 °F 81% 29.90 in 10.0 mi West 8.1 mph - N/A   Clear
8:33 AM 46.4 °F 42.4 °F 39.2 °F 76% 29.91 in 10.0 mi WNW 8.1 mph - N/A   Clear
8:54 AM 46.4 °F 42.4 °F 41.0 °F 81% 29.92 in 10.0 mi WNW 8.1 mph - N/A   Clear
9:14 AM 48.2 °F - 42.8 °F 82% 29.92 in 10.0 mi WNW 5.8 mph - N/A   Clear
9:33 AM 50.0 °F - 42.8 °F 76% 29.93 in 10.0 mi WNW 6.9 mph - N/A   Clear
9:54 AM 50.0 °F - 42.8 °F 76% 29.94 in 10.0 mi WNW 9.2 mph - N/A   Clear
10:14 AM 51.8 °F - 42.8 °F 71% 29.94 in 10.0 mi WNW 5.8 mph - N/A   Clear
10:33 AM 53.6 °F - 44.6 °F 72% 29.95 in 10.0 mi WNW 5.8 mph - N/A   Clear
10:54 AM 53.6 °F - 44.6 °F 72% 29.96 in 10.0 mi WNW 5.8 mph - N/A   Clear
11:14 AM 55.4 °F - 46.4 °F 72% 29.96 in 10.0 mi West 5.8 mph - N/A   Clear
11:33 AM 57.2 °F - 46.4 °F 67% 29.97 in 10.0 mi West 3.5 mph - N/A   Clear
11:54 AM 57.2 °F - 46.4 °F 67% 29.97 in 10.0 mi WNW 4.6 mph - N/A   Clear
12:14 PM 59.0 °F - 44.6 °F 59% 29.97 in 10.0 mi NW 3.5 mph - N/A   Clear
12:33 PM 60.8 °F - 42.8 °F 52% 29.97 in 10.0 mi NW 8.1 mph - N/A   Clear
12:54 PM 60.8 °F - 42.8 °F 52% 29.97 in 10.0 mi WNW 8.1 mph - N/A   Clear
1:14 PM 62.6 °F - 39.2 °F 42% 29.97 in 10.0 mi NW 9.2 mph - N/A   Clear
1:33 PM 62.6 °F - 41.0 °F 45% 29.97 in 10.0 mi NW 8.1 mph - N/A   Clear
1:54 PM 62.6 °F - 39.2 °F 42% 29.97 in 10.0 mi NW 6.9 mph - N/A   Clear
2:14 PM 62.6 °F - 39.2 °F 42% 29.97 in 10.0 mi NW 6.9 mph - N/A   Clear
2:33 PM 64.4 °F - 41.0 °F 42% 29.97 in 10.0 mi NNW 5.8 mph 10.4 mph N/A   Clear
2:54 PM 62.6 °F - 39.2 °F 42% 29.98 in 10.0 mi NW 6.9 mph - N/A   Clear
3:14 PM 64.4 °F - 41.0 °F 42% 29.98 in 10.0 mi West 5.8 mph - N/A   Clear
3:33 PM 64.4 °F - 39.2 °F 40% 29.98 in 10.0 mi WNW 8.1 mph - N/A   Clear
3:54 PM 64.4 °F - 39.2 °F 40% 29.98 in 10.0 mi WNW 9.2 mph - N/A   Clear
4:13 PM 64.4 °F - 37.4 °F 37% 29.98 in 10.0 mi NW 8.1 mph - N/A   Clear
4:34 PM 62.6 °F - 35.6 °F 37% 29.98 in 10.0 mi NW 6.9 mph - N/A   Clear
4:53 PM 62.6 °F - 37.4 °F 39% 29.98 in 10.0 mi NNW 4.6 mph - N/A   Clear
5:14 PM 62.6 °F - 37.4 °F 39% 29.98 in 10.0 mi NW 6.9 mph - N/A   Clear
5:33 PM 62.6 °F - 37.4 °F 39% 29.98 in 10.0 mi NW 3.5 mph - N/A   Clear
5:54 PM 60.8 °F - 39.2 °F 45% 29.98 in 10.0 mi NW 3.5 mph - N/A   Clear
6:14 PM 60.8 °F - 39.2 °F 45% 29.98 in 10.0 mi Calm Calm - N/A   Clear
6:33 PM 60.8 °F - 37.4 °F 42% 29.98 in 10.0 mi Calm Calm - N/A   Clear
6:54 PM 55.4 °F - 39.2 °F 54% 29.99 in 10.0 mi Calm Calm - N/A   Clear
7:13 PM 53.6 °F - 41.0 °F 62% 29.99 in 4.0 mi Calm Calm - N/A   Haze
7:33 PM 53.6 °F - 41.0 °F 62% 29.99 in 10.0 mi Calm Calm - N/A   Clear
7:54 PM 51.8 °F - 39.2 °F 62% 30.00 in 10.0 mi Calm Calm - N/A   Clear
8:13 PM 48.2 °F - 42.8 °F 82% 30.00 in 10.0 mi SSE 3.5 mph - N/A   Clear
8:34 PM 48.2 °F - 39.2 °F 71% 30.01 in 10.0 mi SSE 3.5 mph - N/A   Clear
8:54 PM 48.2 °F - 39.2 °F 71% 30.01 in 10.0 mi SE 3.5 mph - N/A   Clear
9:13 PM 48.2 °F - 39.2 °F 71% 30.01 in 10.0 mi SE 4.6 mph - N/A   Clear
9:34 PM 48.2 °F - 39.2 °F 71% 30.02 in 10.0 mi SE 4.6 mph - N/A   Clear
9:53 PM 46.4 °F 43.5 °F 39.2 °F 76% 30.01 in 10.0 mi SE 5.8 mph - N/A   Clear
10:14 PM 46.4 °F 44.3 °F 39.2 °F 76% 30.02 in 10.0 mi SSE 4.6 mph - N/A   Clear
10:34 PM 46.4 °F 45.2 °F 39.2 °F 76% 30.02 in 10.0 mi SE 3.5 mph - N/A   Scattered Clouds
10:53 PM 46.4 °F 42.4 °F 39.2 °F 76% 30.01 in 10.0 mi SE 8.1 mph - N/A   Clear
11:14 PM 46.4 °F 45.2 °F 39.2 °F 76% 30.01 in 10.0 mi SE 3.5 mph - N/A   Scattered Clouds
11:34 PM 46.4 °F 44.3 °F 39.2 °F 76% 30.01 in 10.0 mi SSE 4.6 mph - N/A   Clear
11:53 PM 46.4 °F 43.5 °F 39.2 °F 76% 30.01 in 10.0 mi SSE 5.8 mph - N/A   Clear